#timestamp,LO_Frequency,Hit,StdDev 
1705525215.5,286047001.2,N
1705525235.3,286046996.5,N
1705525255.2,286046999.2,N
1705525275.0,286046998.8,N
1705525275.9,286046998.8,N
1705525295.8,286047001.2,N
1705525315.6,286046998.2,N
1705525335.4,286047001.1,N
1705525355.3,286047000.5,N
1705525375.1,286046999.8,N
1705525395.8,286047002.5,N
1705525415.7,286047002.0,N
1705525435.5,286047001.5,N
1705525455.4,286047002.2,N
1705525475.2,286047002.1,N
1705525495.0,286047002.2,N
1705525495.9,286047002.2,N
1705525515.8,286046999.7,N
1705525535.6,286047000.1,N
1705525555.4,286047002.0,N
1705525575.3,286047002.1,N
1705525595.1,286047000.2,N
1705525615.9,286047001.0,N
1705525635.7,286047000.6,N
1705525655.5,286047002.8,N
1705525675.4,286047001.0,N
1705525695.2,286047000.9,N
1705525715.0,286047000.5,N
1705525715.9,286047000.5,N
1705525735.8,286046999.9,N
1705525755.6,286047000.1,N
1705525775.5,286047000.2,N
1705525795.3,286047002.7,N
1705525815.1,286047002.3,N
1705525835.9,286046999.7,N
1705525855.7,286046999.8,N
1705525875.5,286046999.8,N
1705525895.4,286047000.9,N
1705525915.2,286047001.1,N
1705525935.1,286047001.0,N
1705525936.0,286047001.0,N
1705525955.8,286046998.3,N
1705525975.6,286047000.8,N
1705525995.5,286046999.7,N
1705526015.3,286047002.4,N
1705526035.1,286047000.3,N
1705526055.9,286047000.5,N
1705526075.7,286046998.1,N
1705526095.6,286046998.7,N
1705526115.4,286046999.3,N
1705526135.2,286047000.3,N
1705526155.1,286047000.3,N
1705526156.0,286047000.3,N
1705526175.8,286047000.0,N
1705526195.7,286046999.8,N
1705526215.5,286047000.6,N
1705526235.3,286047001.2,N
1705526255.2,286046998.6,N
1705526275.9,286046998.5,N
1705526295.7,286046998.5,N
1705526315.6,286046996.6,N
1705526335.4,286046996.6,N
1705526355.3,286046996.5,N
1705526375.1,286046999.0,N
1705526376.0,286046999.0,N
1705526395.8,286046999.4,N
1705526415.7,286047001.0,N
1705526435.5,286047000.9,N
1705526455.3,286047000.2,N
1705526475.2,286047001.5,N
1705526495.0,286047001.6,N
1705526495.9,286047001.6,N
1705526515.8,286047002.5,N
1705526535.6,286047000.4,N
1705526555.4,286046998.3,N
1705526575.3,286046999.8,N
1705526595.1,286047000.0,N
1705526615.8,286047000.4,N
1705526635.7,286047001.2,N
1705526655.5,286047000.9,N
1705526675.4,286047000.0,N
1705526695.2,286047002.8,N
1705526715.0,286047000.0,N
1705526715.9,286047000.0,N
1705526735.8,286047000.3,N
1705526755.6,286047001.9,N
1705526775.4,286047001.4,N
1705526795.3,286047001.7,N
1705526815.1,286047002.6,N
1705526835.9,286047002.8,N
1705526855.7,286047002.3,N
1705526875.5,286047002.2,N
1705526895.4,286047000.2,N
1705526915.2,286047000.8,N
1705526935.0,286046999.9,N
1705526936.0,286046999.9,N
1705526955.8,286047000.3,N
1705526975.6,286047001.1,N
1705526995.5,286047000.4,N
1705527015.3,286046999.8,N
1705527035.1,286047002.3,N
1705527055.9,286047001.9,N
1705527075.7,286047001.3,N
1705527095.6,286047004.3,Y
1705527115.4,286047004.3,P
1705527135.2,286047004.1,N
1705527155.1,286047004.0,N
1705527156.0,286047004.0,N
1705527175.8,286047003.9,Y
1705527195.6,286046999.0,P
1705527215.5,286046999.2,N
1705527235.3,286046997.2,N
1705527255.2,286046999.5,N
1705527275.9,286046999.2,N
1705527295.7,286046999.6,N
1705527315.6,286046996.8,N
1705527335.4,286046997.4,N
1705527355.3,286046996.9,N
1705527375.1,286046998.7,N
1705527376.0,286046998.7,N
1705527395.8,286046998.9,N
1705527415.7,286046999.6,N
1705527435.5,286046996.6,N
1705527455.4,286046998.0,N
1705527475.2,286046996.7,N
1705527495.0,286046996.7,N
1705527495.9,286046996.7,N
1705527515.8,286046999.3,N
1705527535.6,286046997.7,N
1705527555.5,286046995.2,Y
1705527575.3,286046999.1,P
1705527595.1,286046998.5,P
1705527615.9,286047001.1,P
1705527635.7,286046998.4,N
1705527655.6,286046999.3,N
1705527675.4,286046998.3,N
1705527695.2,286047001.1,N
1705527715.1,286047000.5,N
1705527716.0,286047000.5,N
1705527735.8,286047000.9,N
1705527755.7,286046998.7,N
1705527775.5,286046998.1,N
1705527795.3,286046999.7,N
1705527815.2,286046999.9,N
1705527835.0,286047000.7,N
1705527835.9,286047000.7,N
1705527855.8,286047001.2,N
1705527875.6,286047001.0,N
1705527895.4,286046998.3,N
1705527915.3,286046999.1,N
1705527935.1,286046998.9,N
1705527955.9,286046998.5,N
1705527975.7,286047000.6,N
1705527995.5,286047000.0,N
1705528015.4,286047000.6,N
1705528035.2,286047001.0,N
1705528055.1,286047000.4,N
1705528056.0,286047000.4,N
1705528075.8,286047000.7,N
1705528095.6,286046999.9,N
1705528115.5,286046998.6,N
1705528135.3,286047000.5,N
1705528155.1,286047000.0,N
1705528175.9,286046998.3,N
1705528195.7,286046998.1,N
1705528215.6,286046998.9,N
1705528235.4,286046999.0,N
1705528255.2,286046997.0,Y
1705528275.1,286046999.2,P
1705528276.0,286046999.2,N
1705528295.8,286046999.2,N
1705528315.7,286046996.6,Y
1705528335.5,286046998.3,P
1705528355.3,286046998.1,P
1705528375.2,286046998.3,P
1705528395.0,286047000.0,N
1705528395.9,286047000.0,N
1705528415.8,286046998.1,N
1705528435.6,286047000.8,N
1705528455.4,286046998.1,N
1705528475.3,286047001.0,N
1705528495.1,286046998.7,N
1705528515.9,286047001.0,N
1705528535.7,286046998.3,N
1705528555.5,286046997.3,N
1705528575.4,286046997.0,N
1705528595.2,286046998.9,N
1705528615.1,286047001.2,N
1705528616.0,286047001.2,N
1705528635.8,286047000.8,N
1705528655.6,286047000.4,N
1705528675.5,286047000.1,N
1705528695.3,286047001.2,N
1705528715.1,286046998.7,N
1705528735.9,286046998.3,N
1705528755.7,286046998.6,N
1705528775.6,286046998.6,N
1705528795.4,286047000.6,N
